Regional Weather Roundup
Issued by NWS Sterling, VA

Home | Current Version | Previous Version | Graphics & Text | Print | Product List | Glossary On
Versions: 1 2 3 4 5 6 7 8 9 10 11 12 13 14 15 16 17 18 19 20 21 22 23 24 25 26 27 28 29 30 31 32 33 34 35 36 37 38 39 40 41 42 43 44 45 46 47 48 49 50
874
ASUS41 KLWX 241711
RWRLWX

REGIONAL WEATHER ROUNDUP
NATIONAL WEATHER SERVICE BALTIMORE MD/WASHINGTON DC
100 PM EDT SUN JUL 24 2016

Note: "FAIR" indicates few or no clouds below 12,000 feet
with no significant weather and/or obstructions to visibility.
 TC=TEMPERATURE CELSIUS

 * =Non NWS site. Station does not report precipitation (e.g. rain,
    snow, etc.), thunder, or fog.

DCZ001-MDZ009-015-VAZ040>042-051-053>054-241800-
WASHINGTON METRO

CITY           SKY/WX    TMP DP  RH WIND       PRES   REMARKS
WASHINGTON NAT PTSUNNY   93  64  38 VRB5      30.01S HX  94
DULLES         PTSUNNY   94  61  33 CALM      30.01F HX  94
ANDREWS AFB    PTSUNNY   89  66  45 E5        30.01S HX  91
FT BELVOIR     FAIR      94  65  38 VRB3      30.00S HX  96
QUANTICO       FAIR      91  69  48 S3        30.01S HX  96
COLLEGE PARK*  FAIR      90  63  40 E3        30.01S HX  90
LEESBURG*      FAIR      95  68  41 W7        30.03S HX  99
MANASSAS*      SUNNY     91  64  40 SW3       30.01F HX  93
GAITHERSBURG*  MOSUNNY   90  64  43 CALM      30.06F HX  91

$$

MDZ006>007-011-014-241800-
BALTIMORE METRO

CITY           SKY/WX    TMP DP  RH WIND       PRES   REMARKS
BWI AIRPORT    CLOUDY    91  62  37 VRB6      30.01S HX  91
MD SCIENCE CTR   N/A     92  59  33 MISG      30.01S HX  91
MARTIN STATE   PTSUNNY   90  66  45 SE6       30.03R HX  92
ANNAPOLIS      MOSUNNY   88  67  49 CALM      30.01R HX  91
FORT MEADE*    CLOUDY    88  64  45 S5        30.03F

$$

MDZ012-015-019>023-241800-
MARYLAND EASTERN SHORE

CITY           SKY/WX    TMP DP  RH WIND       PRES   REMARKS
OCEAN CITY     PTSUNNY   83  72  69 E8        30.01R
SALISBURY      MOSUNNY   92  67  43 E7        30.00R HX  95
BAY BRIDGE AP* MOSUNNY   86  70  58 NW6       30.01S HX  90
CAMBRIDGE*     CLOUDY    90  66  45 CALM      30.00R HX  92
EASTON*        CLOUDY    91  72  52 MISG      30.04S HX  98

$$

MDZ017>025-241800-
SOUTHERN MARYLAND

CITY           SKY/WX    TMP DP  RH WIND       PRES   REMARKS
PATUXENT RIVER CLOUDY    92  64  39 SE7       30.00S HX  93
ST INIGOES     MOSUNNY   93  69  45 E5        29.99S HX  98
LEONARDTOWN*   MOSUNNY   91  63  38 E3        30.02S HX  92

$$

MDZ003>005-241800-
NORTH CENTRAL MARYLAND

CITY           SKY/WX    TMP DP  RH WIND       PRES   REMARKS
FREDERICK*     SUNNY     91  63  38 CALM      30.04F HX  92
HAGERSTOWN APT MOSUNNY   90  63  40 S7        30.03S HX  91

$$

MDZ501>502-241800-
WESTERN MARYLAND

CITY           SKY/WX    TMP DP  RH WIND       PRES   REMARKS
OAKLAND*       PTSUNNY   77  68  73 W6        30.16S
CUMBERLAND*    MOSUNNY   91  70  49 CALM      30.05F HX  97

$$

VAZ025>031-241800-
SHENANDOAH VALLEY

CITY           SKY/WX    TMP DP  RH WIND       PRES   REMARKS
WINCHESTER*    FAIR      93  63  36 SE9       30.03F HX  94
FRONT ROYAL*   FAIR      90  64  43 CALM      30.03F HX  91
LURAY*         PTSUNNY   90  73  58 CALM      30.04F HX  98
NEW MARKET*    FAIR     N/A N/A N/A CALM      30.03S
STAUNTON*      FAIR      87  73  61 SE8       30.08S HX  94
WAYNESBORO*    FAIR      88  72  58 CALM      30.08F HX  94

$$

WVZ021-048>050-054>055-241800-
EASTERN WEST VIRGINIA PANHANDLE

CITY           SKY/WX    TMP DP  RH WIND       PRES   REMARKS
MARTINSBURG    FAIR      92  63  38 S9        30.01F HX  93
PETERSBURG*    FAIR      94  72  49 SE8       30.03F HX 102

$$

VAZ036>039-050-241800-
CENTRAL FOOTHILLS

CITY           SKY/WX    TMP DP  RH WIND       PRES   REMARKS
CHARLOTTESVILL FAIR      95  66  38 VRB5      30.03S HX  98
CULPEPER*      FAIR      93  65  39 CALM      30.03S HX  95
ORANGE*        NOT AVBL
GORDONSVILLE*  FAIR      93  66  40 SE3       30.02S HX  96
WARRENTON*     FAIR      94  50  21 CALM      30.02S HX  91

$$

VAZ055>057-241800-
NORTH AND CENTRAL PIEDMONT

CITY           SKY/WX    TMP DP  RH WIND       PRES   REMARKS
FREDERICKSBRG*   N/A     92  71  50 NE5       30.00S HX  99
STAFFORD*      FAIR      93  65  40 CALM      30.05S HX  95

$$

NCZ024-NYZ072-PAZ021-071-VAZ022-071-241800-
OTHER REGIONAL OBSERVATIONS

CITY           SKY/WX    TMP DP  RH WIND       PRES   REMARKS
NEW YORK CITY  CLOUDY    91  59  33 NW3       30.00S HX  90
PHILADELPHIA   PTSUNNY   93  60  33 S7        30.00R HX  93
PITTSBURGH     MOSUNNY   88  68  51 S7        30.02F HX  91
ROANOKE        FAIR      93  68  43 VRB3      30.08S HX  97
RICHMOND       PTSUNNY   92  75  57 VRB7      29.99S HX 103
RALEIGH        PTSUNNY   92  74  55 SE6       30.04S HX 101

$$

ANZ530>537-241800-
MARINE OBSERVATIONS

STATION/POSITION TIME  TEMP    WIND        PRES
                       AIR SEA DIR/SP/G
                 (UTC) (F)     (DEG/KT/KT) (MB)
THOMAS PT LIGHT  1700   84 84  360/  5/  5 1017.6R
BALT KEY BRIDGE  1648   85     140/  5/  5 1016.3R
COVE POINT       1648   84     360/  7/  8 1016.6R
LEWISETTA        1648   85 87   90/  5/  6 1015.5R
SOLOMONS ISLAND  1648   87 85   60/  3/  3   N/A
PINEY POINT      1648          170/  3/  4   N/A

$$





USA.gov is the U.S. government's official web portal to all federal, state and local government web resources and services.